Weather Roundup
Issued by NWS Springfield, MO

Home | Current Version | Previous Version | Text Only | Print | Product List | Glossary On
Versions: 1 2 3 4 5 6 7 8 9 10 11 12 13 14 15 16 17 18 19 20 21 22 23 24 25 26 27 28 29 30 31 32 33 34 35 36 37 38 39 40 41 42 43 44 45 46 47 48 49 50
325
NZUS99 KSGF 210107
HRRSGF

HOURLY WEATHER
NATIONAL WEATHER SERVICE SPRINGFIELD MO
800 PM CDT SUN MAY 20 2018

......SGF CWA......

CITY           SKY/WX    TMP DP  RH WIND       PRES   REMARKS
SPRINGFIELD    PTCLDY    68  65  90 SE7       30.02R
JOPLIN         CLOUDY    72  68  87 NW6       30.00R
WEST PLAINS    CLOUDY    77  68  73 SE8       30.03R
ROLLA          CLOUDY    73  65  75 E5        30.03R
OSAGE BEACH    TSTM      66  65  96 S6        30.06R
BRANSON        CLOUDY    68  66  94 E6        30.04R THUNDER

......SURROUNDING SGF CWA......

CITY           SKY/WX    TMP DP  RH WIND       PRES   REMARKS
CHANUTE        CLOUDY    67  63  87 NW8       30.03R
PARSONS        CLOUDY    70  66  87 NW9       30.02S
COFFEYVILLE    PTCLDY    70  64  81 NW6       30.01S
EMPORIA        CLOUDY    63  59  87 NW5       30.04R
GROVE OK       MOCLDY    73  70  88 SE6       30.01S
ROGERS AR      LGT RAIN  70  66  87 S6        30.04S
SILOAM SPRINGS CLOUDY    69  68  96 SE3       30.03S FOG
HARRISON AR    CLOUDY    69  66  90 VRB3      30.03R
NEAR YELLVILLE MOCLDY    75  67  76 SE7       30.00R

......KANSAS AND MISSOURI......

CITY           SKY/WX    TMP DP  RH WIND       PRES   REMARKS
KANSAS CTY INT CLOUDY    68  65  90 NW3       30.02S
DOWNTOWN KC    CLOUDY    70  62  76 NW7       30.00R
COLUMBIA       CLOUDY    74  67  78 SE5       30.03R THUNDER
SEDALIA        CLOUDY    68  68 100 E15       30.01F
ST JOSEPH      CLOUDY    68  65  90 E5        30.02S
ST LOUIS       MOCLDY    77  67  71 E7        30.03R
SPIRIT OF STL  CLEAR     74  69  85 CALM      30.02R
KIRKSVILLE     CLOUDY    73  63  70 E6        30.04S
WICHITA        PTCLDY    67  58  72 CALM      30.04S
TOPEKA         CLOUDY    67  65  93 NW3       30.02S
OLATHE         CLOUDY    67  63  87 NW6       30.01R

......TENNESSEE......

CITY           SKY/WX    TMP DP  RH WIND       PRES   REMARKS
MEMPHIS        CLOUDY    76  68  76 E10G16    30.03R
NASHVILLE      LGT RAIN  70  67  90 N12       30.12R

......ARKANSAS.......

CITY           SKY/WX    TMP DP  RH WIND       PRES   REMARKS
FAYETTEVILLE   LGT RAIN  67  65  93 CALM      30.03S
FT SMITH       CLOUDY    72  67  84 W7        29.99S
LITTLE ROCK    MOCLDY    81  70  69 SW6       29.96R

......OKLAHOMA.......

CITY           SKY/WX    TMP DP  RH WIND       PRES   REMARKS
TULSA          CLOUDY    74  65  73 NW7       29.99R
PONCA CITY     CLOUDY    66  59  78 N5        30.03F
MCALESTER      MOCLDY    74  66  76 N3        30.02R
OKLAHOMA CITY  MOCLDY    70  59  68 E3        30.02F

......IOWA............

CITY           SKY/WX    TMP DP  RH WIND       PRES   REMARKS
DES MOINES     CLOUDY    64  58  80 NE13      30.05F
QUAD CITIES    CLOUDY    63  56  78 E12       30.10F

......ILLINOIS........

CITY           SKY/WX    TMP DP  RH WIND       PRES   REMARKS
QUINCY         PTCLDY    74  63  68 SE6       30.03F
CHICAGO        CLOUDY    48  41  76 NE7       30.18R





USA.gov is the U.S. government's official web portal to all federal, state and local government web resources and services.